Starlink 5806

operational
NORAD ID: 56007 Int'l Des: 2023-042 Owner: SPXS Country: US Constellation: starlink
LEOCIRCULAR

Starlink 5806について

説明を読み込み中...

リアルタイム位置

3D地球を読み込み中...

次回通過

高度履歴

Altitude vs Time

uPlot chart will show altitude changes over time

軌道要素

1 56007U 23042X 25259.77850086 -.00004554 00000-0 -32208-3 0 9991
2 56007 43.0029 280.7525 0001335 262.6574 97.4116 15.02557439136752
Epoch: Sep 16, 2025 • Age: 26 hours

現在のステータス

高度 560.1 km
速度 7.59 km/s
衛星直下点 29.07°N, 8.09°E
打ち上げ日 Mar 24, 2023
運用期間 2.4 years
タイプ internet

技術仕様

分類 Payload
質量 305.00 kg
乾燥質量 290.00 kg
総質量 305.00 kg
長さ 0.20 m
直径 2.80 m
スパン 9.00 m
形状 Box + pan
製造者 SPXS
バスタイプ Starlink
フェーズステータス In Orbit
所有者/国 SPXS/US

大規模コンステレーション

Loading constellations...